Regional Weather Roundup
Issued by NWS Raleigh/Durham, NC

Home | Current Version | Previous Version | Text Only | Print | Product List | Glossary On
Versions: 1 2 3 4 5 6 7 8 9 10 11 12 13 14 15 16 17 18 19 20 21 22 23 24 25 26 27 28 29 30 31 32 33 34 35 36 37 38 39 40 41 42 43 44 45 46 47 48 49 50
000
ASUS42 KRAH 300710
RWRRAH
NORTH CAROLINA WEATHER ROUNDUP
NATIONAL WEATHER SERVICE RALEIGH NC
200 AM EST FRI JAN 30 2015

NOTE: "FAIR" INDICATES FEW OR NO CLOUDS BELOW 12,000 FEET WITH NO
SIGNIFICANT WEATHER AND/OR OBSTRUCTIONS TO VISIBILITY.

NCZ001-053-055-056-065-067-300800-
WESTERN NORTH CAROLINA

CITY           SKY/WX    TMP DP  RH WIND       PRES   REMARKS
ASHEVILLE      CLOUDY    39  30  70 N17       30.06R WCI  30
JEFFERSON      CLOUDY    33  29  85 W10G22    29.97S WCI  25
MORGANTON      CLOUDY    44  29  55 S3        30.05R
HICKORY        CLOUDY    42  27  55 W3        30.00R
RUTHERFORDTON  CLOUDY    46  32  58 W10       30.02R
MOUNT AIRY     CLOUDY    43  28  54 NW3       30.00R
BOONE          LGT SNOW  33  33  99 NW21G30   29.97S WCI  21
$$

NCZ021-022-025-041-071-084-088-300800-
CENTRAL NORTH CAROLINA

CITY           SKY/WX    TMP DP  RH WIND       PRES   REMARKS
CHARLOTTE      CLOUDY    47  26  44 SW10      29.99F
GREENSBORO     CLOUDY    42  25  50 W6        29.97S
WINSTON-SALEM  CLOUDY    42  24  49 CALM      29.98S
RALEIGH-DURHAM PTCLDY    40  25  55 NW5       29.99S
FORT BRAGG     PTCLDY    45  35  70 SW6       30.00S
FAYETTEVILLE   PTCLDY    46  37  71 SW13      30.00F
BURLINGTON     CLOUDY    40  25  55 SW3       29.97S
LAURINBURG     PTCLDY    42  36  79 S7        30.02F
$$

NCZ011-015-027-028-043-044-047-080-103-300800-
NORTHEASTERN NORTH CAROLINA

CITY           SKY/WX    TMP DP  RH WIND       PRES   REMARKS
ROCKY MT-WILSO CLEAR     40  31  70 S7        29.98F
GREENVILLE     CLEAR     43  36  75 SW7       30.01F
WASHINGTON     MOCLDY    44  35  71 S6        30.01F
ELIZABETH CITY CLOUDY    43  34  70 SW12      30.00F
MANTEO         CLOUDY    45  36  70 SW8       30.01F
CAPE HATTERAS  CLOUDY    50  44  80 W8        30.04F
$$

NCZ078-087-090-091-093-098-101-300800-
SOUTHEASTERN NORTH CAROLINA

CITY           SKY/WX    TMP DP  RH WIND       PRES   REMARKS
LUMBERTON      CLOUDY    47  39  74 S6        30.02F
GOLDSBORO      PTCLDY    43  42  97 CALM      29.99F
KINSTON        PTCLDY    45  38  77 S12       30.01F
KENANSVILLE    CLOUDY    44  38  80 CALM      30.03F
NEW BERN       CLOUDY    51  40  65 SW8       30.04F
CHERRY POINT   CLOUDY    51  42  71 SW12      30.05F
BEAUFORT       CLOUDY    52  45  77 W9        30.06F
JACKSONVILLE   CLOUDY    49  42  77 SW8       30.04F
WILMINGTON     CLOUDY    49  45  86 SW6       30.05F
$$



USA.gov is the U.S. government's official web portal to all federal, state and local government web resources and services.